Location: Krasnoyarskiy Pitomnik
(51.1333°N, 71.6167°E)
Time: 00:23:03
(UTC+00:00)

NOSS 2-2 (C) - Pass Details

Date: 04 June 2022
Orbit: 439 x 1763 km, 63.3° (Epoch: 02 June)

Event Time Altitude Azimuth Distance (km) Brightness Sun altitude
Rises 19:17:41 0° 301° (WNW) 3,172 7.6 -16.4°
Reaches altitude 10° 19:20:46 10° 279° (W) 2,471 6.7 -16.3°
Maximum altitude 19:24:04 16° 244° (WSW) 2,322 6.2 -16.3°
Enters shadow 19:26:02 14° 224° (SW) 2,576 6.3 -16.3°
